This is the latest recevied weather packets stored in our database for station/object SR6NWB-11. If no packets are shown the sender has not sent any weather packets the latest 10 day(s).
| Time | Temp. | Humidity | Pressure | Rain* | Wind** | Luminosity | Snow |
|---|---|---|---|---|---|---|---|
| 1777454761 | 5° C | 35% | 1028.5 hPa | 0 mm | - | - | - |
| 1777454226 | 5.56° C | 37% | 1028.5 hPa | 0 mm | - | - | - |
| 1777453661 | 5° C | 38% | 1028.5 hPa | 0 mm | - | - | - |
| 1777453086 | 5° C | 40% | 1028.6 hPa | 0 mm | - | - | - |
| 1777452551 | 4.44° C | 41% | 1028.4 hPa | 0 mm | - | - | - |
| 1777451971 | 3.89° C | 42% | 1028.5 hPa | 0 mm | - | - | - |
| 1777451396 | 3.33° C | 43% | 1028.4 hPa | 0 mm | - | - | - |
| 1777450901 | 3.89° C | 44% | 1028.4 hPa | 0 mm | - | - | - |
| 1777450326 | 3.89° C | 44% | 1028.4 hPa | 0 mm | - | - | - |
| 1777449841 | 3.89° C | 44% | 1028.2 hPa | 0 mm | - | - | - |
| 1777449276 | 3.89° C | 47% | 1028.3 hPa | 0 mm | - | - | - |
| 1777448221 | 3.33° C | 48% | 1028.2 hPa | 0 mm | - | - | - |
| 1777447711 | 2.78° C | 50% | 1028.1 hPa | 0 mm | - | - | - |
| 1777447156 | 2.22° C | 51% | 1028.1 hPa | 0 mm | - | - | - |
| 1777446601 | 2.22° C | 52% | 1028 hPa | 0 mm | - | - | - |
| 1777446121 | 2.22° C | 54% | 1027.9 hPa | 0 mm | - | - | - |
| 1777445586 | 1.67° C | 55% | 1027.9 hPa | 0 mm | - | - | - |
| 1777445036 | 1.67° C | 56% | 1027.7 hPa | 0 mm | - | - | - |
| 1777444476 | 1.67° C | 57% | 1027.7 hPa | 0 mm | - | - | - |
| 1777443897 | 1.67° C | 58% | 1027.7 hPa | 0 mm | - | - | - |
| 1777443366 | 1.67° C | 59% | 1027.6 hPa | 0 mm | - | - | - |
| 1777442771 | 1.11° C | 59% | 1027.5 hPa | 0 mm | - | - | - |
| 1777442221 | 1.11° C | 60% | 1027.5 hPa | 0 mm | - | - | - |
| 1777441726 | 0.56° C | 61% | 1027.4 hPa | 0 mm | - | - | - |
| 1777441211 | 0.56° C | 62% | 1027.3 hPa | 0 mm | - | - | - |
* Rain latest hour (hover to see other rain measurements)
** Current wind speed in m/s (hover to see current wind gust speed)